EW1669 Weather Reports


time (UTC)temp
F
wind
direction
speed
knots
gust
knots
rain 1hr
in
rain 24hr
in
rain mn
in
humidity
%
barometer
mb
20260901161812 83 113 7.0 11.3 0.00 0.00 0.00 46 1021.7
20260901161304 82 147 0.9 13.0 0.00 0.00 0.00 47 1022.1
20260901160757 83 154 5.2 13.0 0.00 0.00 0.00 47 1021.7
20260901160236 83 183 0.0 11.3 0.00 0.00 0.00 47 1021.7
20260901155735 82 155 7.0 9.6 0.00 0.00 0.00 48 1021.7
20260901155452 82 139 0.9 11.3 0.00 0.00 0.00 48 1021.7
20260901154717 81 138 2.6 11.3 0.00 0.00 0.00 50 1022.1
20260901154207 80 134 3.5 11.3 0.00 0.00 0.00 51 1021.7
20260901153704 80 121 7.0 11.3 0.00 0.00 0.00 51 1021.7
20260901153155 80 207 0.0 8.7 0.00 0.00 0.00 52 1022.1
20260901152645 80 180 0.0 11.3 0.00 0.00 0.00 51 1021.7
20260901152135 79 155 7.0 11.3 0.00 0.00 0.00 52 1021.7
20260901151632 79 112 1.7 11.3 0.00 0.00 0.00 53 1021.7
20260901151129 79 139 0.0 13.0 0.00 0.00 0.00 51 1022.1
20260901150623 79 127 7.0 13.0 0.00 0.00 0.00 52 1021.7
20260901150114 78 130 3.5 12.2 0.00 0.00 0.00 53 1021.7
20260901145613 77 191 0.0 8.7 0.00 0.00 0.00 54 1021.7
20260901145100 76 139 0.0 8.7 0.00 0.00 0.00 55 1021.7
20260901144551 76 117 0.0 6.1 0.00 0.00 0.00 55 1021.7
20260901144036 76 149 0.9 7.8 0.00 0.00 0.00 56 1022.1
20260901143536 75 174 0.0 7.8 0.00 0.00 0.00 56 1022.1
20260901143030 74 163 0.9 8.7 0.00 0.00 0.00 57 1022.1
20260901142527 74 130 0.0 8.7 0.00 0.00 0.00 58 1022.1
20260901142019 73 162 0.9 6.1 0.00 0.00 0.00 58 1022.1
20260901141514 72 130 0.0 0.0 0.00 0.00 0.00 59 1022.1
20260901141005 71 183 0.0 2.6 0.00 0.00 0.00 60 1021.7
20260901140729 71 189 0.0 3.5 0.00 0.00 0.00 60 1022.1
20260901135953 71 153 0.0 3.5 0.00 0.00 0.00 60 1021.7
20260901135435 71 158 0.0 7.0 0.00 0.00 0.00 60 1021.7
20260901134915 71 110 0.9 7.0 0.00 0.00 0.00 60 1021.7
20260901134411 72 141 4.3 7.0 0.00 0.00 0.00 59 1021.7
20260901133902 72 107 0.0 5.2 0.00 0.00 0.00 58 1021.4
20260901133358 71 121 0.0 1.7 0.00 0.00 0.00 59 1021.4
20260901132855 71 121 0.0 2.6 0.00 0.00 0.00 59 1021.7
20260901132351 70 125 0.0 2.6 0.00 0.00 0.00 60 1021.7
20260901131834 70 104 0.0 0.9 0.00 0.00 0.00 60 1021.7
20260901131328 70 107 0.0 1.7 0.00 0.00 0.00 60 1021.4
20260901130827 69 115 0.9 1.7 0.00 0.00 0.00 60 1021.4
20260901130323 69 81 0.0 1.7 0.00 0.00 0.00 61 1021.4
20260901125812 69 113 0.0 1.7 0.00 0.00 0.00 61 1021.1
20260901125301 69 111 0.0 0.0 0.00 0.00 0.00 61 1021.1
20260901124758 69 128 0.0 0.0 0.00 0.00 0.00 60 1021.4
20260901124250 69 112 0.0 0.0 0.00 0.00 0.00 60 1021.4
20260901123747 69 113 0.0 0.0 0.00 0.00 0.00 60 1021.4
20260901123234 69 110 0.0 0.0 0.00 0.00 0.00 60 1021.1
20260901122726 69 99 0.0 0.0 0.00 0.00 0.00 60 1021.1
20260901122225 69 102 0.0 0.0 0.00 0.00 0.00 59 1021.1
20260901121708 69 106 0.0 0.0 0.00 0.00 0.00 59 1021.1
20260901121155 70 109 0.0 0.0 0.00 0.00 0.00 59 1020.7
20260901120911 70 111 0.0 0.0 0.00 0.00 0.00 58 1020.7
20260901120411 70 111 0.0 0.0 0.00 0.00 0.00 58 1021.1
20260901115641 69 109 0.0 0.0 0.00 0.00 0.00 59 1020.7
20260901115132 69 109 0.0 0.0 0.00 0.00 0.00 58 1021.1
20260901114843 69 113 0.0 0.9 0.00 0.00 0.00 58 1021.1
20260901114334 70 114 0.0 2.6 0.00 0.00 0.00 58 1020.7
20260901113612 70 112 0.0 2.6 0.00 0.00 0.00 58 1020.7
20260901113114 70 112 2.6 2.6 0.00 0.00 0.00 58 1021.1
20260901112603 70 116 0.0 0.0 0.00 0.00 0.00 57 1020.7
20260901112100 70 115 0.0 0.0 0.00 0.00 0.00 57 1020.7
20260901111558 70 119 0.0 0.0 0.00 0.00 0.00 57 1020.7
20260901111058 70 112 0.0 0.9 0.00 0.00 0.00 57 1021.1
20260901110552 70 110 0.0 0.9 0.00 0.00 0.00 56 1020.7
20260901110257 70 106 0.0 0.0 0.00 0.00 0.00 56 1020.7
20260901105527 70 110 0.0 0.0 0.00 0.00 0.00 56 1020.7
20260901105017 70 114 0.0 0.0 0.00 0.00 0.00 56 1020.4
20260901104515 70 106 0.0 0.0 0.00 0.00 0.00 56 1021.1
20260901103515 70 114 0.0 0.0 0.00 0.00 0.00 56 1020.7
20260901103004 70 107 0.0 0.0 0.00 0.00 0.00 56 1020.7
20260901102454 70 111 0.0 0.0 0.00 0.00 0.00 56 1020.4
20260901101952 70 110 0.0 0.0 0.00 0.00 0.00 56 1020.7
20260901101443 70 104 0.0 0.0 0.00 0.00 0.00 56 1020.4
20260901100935 70 106 0.0 0.0 0.00 0.00 0.00 56 1020.7
20260901100425 70 106 0.0 0.0 0.00 0.00 0.00 56 1020.7
20260901095926 70 107 0.0 0.0 0.00 0.00 0.00 56 1020.4
20260901095415 70 107 0.0 0.9 0.00 0.00 0.00 55 1020.7
20260901094914 71 107 0.0 0.9 0.00 0.00 0.00 55 1020.7
20260901094412 71 108 0.0 0.0 0.00 0.00 0.00 54 1020.7
20260901093910 71 114 0.0 0.0 0.00 0.00 0.00 54 1020.7
20260901093412 71 120 0.0 0.0 0.00 0.00 0.00 54 1020.7
20260901093130 71 121 0.0 0.0 0.00 0.00 0.00 54 1021.1
20260901092634 71 117 0.0 0.0 0.00 0.00 0.00 53 1020.4
20260901091856 71 120 0.0 0.0 0.00 0.00 0.00 53 1020.7
20260901091355 71 123 0.0 0.0 0.00 0.00 0.00 52 1020.4
20260901090835 72 117 0.0 0.0 0.00 0.00 0.00 52 1020.7
20260901090531 72 115 0.0 0.0 0.00 0.00 0.00 52 1020.7
20260901085811 72 117 0.0 0.0 0.00 0.00 0.00 52 1020.7
20260901085305 72 108 0.0 2.6 0.00 0.00 0.00 51 1020.7
20260901084800 72 116 0.0 2.6 0.00 0.00 0.00 51 1020.7
20260901084249 72 128 0.0 0.9 0.00 0.00 0.00 51 1020.4
20260901083736 73 133 0.0 0.9 0.00 0.00 0.00 50 1020.7
20260901083234 73 123 0.0 0.9 0.00 0.00 0.00 50 1020.4
20260901082735 72 120 0.0 1.7 0.00 0.00 0.00 50 1020.4
20260901082501 73 117 0.0 1.7 0.00 0.00 0.00 50 1020.0
20260901081715 73 115 0.0 2.6 0.00 0.00 0.00 50 1020.4
20260901081215 73 119 0.0 3.5 0.00 0.00 0.00 50 1020.7
20260901080715 73 108 0.0 3.5 0.00 0.00 0.00 50 1020.4
20260901080203 73 118 0.0 3.5 0.00 0.00 0.00 50 1020.4
20260901075656 73 125 0.0 2.6 0.00 0.00 0.00 49 1020.0
20260901075417 73 136 0.0 2.6 0.00 0.00 0.00 49 1020.0
20260901074647 74 128 0.0 1.7 0.00 0.00 0.00 49 1020.0
20260901074143 74 109 0.0 5.2 0.00 0.00 0.00 48 1020.4
20260901073619 74 115 0.9 6.1 0.00 0.00 0.00 48 1020.4
20260901073114 74 134 0.0 7.8 0.00 0.00 0.00 47 1020.4
20260901072613 74 92 1.7 7.8 0.00 0.00 0.00 47 1020.0
20260901072114 74 122 0.9 7.0 0.00 0.00 0.00 47 1020.4
20260901071614 74 115 0.9 3.5 0.00 0.00 0.00 47 1020.4
20260901071110 74 126 0.9 3.5 0.00 0.00 0.00 46 1020.4
20260901070834 74 106 0.0 2.6 0.00 0.00 0.00 46 1020.4
20260901070324 74 132 0.0 2.6 0.00 0.00 0.00 45 1020.7
20260901065601 75 108 0.0 2.6 0.00 0.00 0.00 45 1020.0
20260901065100 75 125 0.0 2.6 0.00 0.00 0.00 45 1020.4
20260901064811 75 112 0.0 2.6 0.00 0.00 0.00 45 1020.4
20260901064047 75 111 0.0 5.2 0.00 0.00 0.00 45 1020.4
20260901063753 75 114 0.9 5.2 0.00 0.00 0.00 44 1020.4
20260901063009 75 136 0.9 5.2 0.00 0.00 0.00 44 1020.0
20260901062504 75 131 0.0 6.1 0.00 0.00 0.00 44 1020.0
20260901062228 76 113 0.0 6.1 0.00 0.00 0.00 44 1020.4
20260901061459 76 120 0.0 5.2 0.00 0.00 0.00 44 1020.4
20260901061224 76 120 0.0 5.2 0.00 0.00 0.00 43 1020.4
20260901060436 76 119 0.0 2.6 0.00 0.00 0.00 43 1020.4
20260901055931 76 121 0.9 1.7 0.00 0.00 0.00 43 1020.4
20260901055430 76 112 0.0 5.2 0.00 0.00 0.00 42 1020.7
20260901054921 76 100 0.9 3.5 0.00 0.00 0.00 42 1020.4
20260901054421 77 122 0.0 3.5 0.00 0.00 0.00 42 1020.4
20260901053901 77 120 0.0 7.0 0.00 0.00 0.00 42 1020.4
20260901053359 77 119 0.0 7.0 0.00 0.00 0.00 42 1020.0
20260901052847 77 112 0.0 7.0 0.00 0.00 0.00 41 1020.7
20260901052340 77 135 0.0 7.0 0.00 0.00 0.00 41 1020.4
20260901052054 77 115 0.0 3.5 0.00 0.00 0.00 41 1020.4
20260901051327 77 100 0.9 3.5 0.00 0.00 0.00 41 1021.1
20260901050819 77 122 0.0 7.8 0.00 0.00 0.00 41 1020.7
20260901050306 78 119 0.9 7.8 0.00 0.00 0.00 41 1020.4
20260901045756 78 128 0.0 8.7 0.00 0.00 0.00 40 1020.7
20260901045253 78 133 0.9 8.7 0.00 0.00 0.00 40 1020.7
20260901044753 78 122 0.9 7.0 0.00 0.00 0.00 39 1020.7
20260901044249 78 142 0.0 7.8 0.00 0.00 0.00 39 1020.4
20260901043745 79 111 0.0 7.8 0.00 0.00 0.00 39 1020.4
20260901043240 79 100 1.7 6.1 0.00 0.00 0.00 38 1020.7
20260901042735 79 108 0.0 5.2 0.00 0.00 0.00 38 1020.7
20260901042228 79 131 0.0 5.2 0.00 0.00 0.00 37 1020.4
20260901041726 79 134 0.9 5.2 0.00 0.00 0.00 37 1020.7
20260901041213 80 119 0.0 7.8 0.00 0.00 0.00 37 1020.7
20260901040939 80 140 0.0 7.8 0.00 0.00 0.00 37 1020.4
20260901040204 80 143 2.6 6.1 0.00 0.00 0.00 37 1020.4
20260901035644 80 110 0.0 3.5 0.00 0.00 0.00 37 1020.4
20260901035354 81 126 0.0 3.5 0.00 0.00 0.00 36 1020.4
20260901034629 81 132 0.0 5.2 0.00 0.00 0.00 36 1020.4
20260901034110 81 114 0.0 5.2 0.00 0.00 0.00 36 1020.4
20260901033603 81 100 0.0 6.1 0.00 0.00 0.00 36 1020.0
20260901033055 80 124 0.9 6.1 0.00 0.00 0.00 37 1020.0
20260901032544 81 119 2.6 9.6 0.00 0.00 0.00 36 1020.0
20260901032042 81 127 7.0 9.6 0.00 0.00 0.00 36 1020.0
20260901031534 81 136 0.0 5.2 0.00 0.00 0.00 36 1020.0
20260901031015 81 126 0.0 2.6 0.00 0.00 0.00 36 1019.7
20260901030511 81 106 0.0 0.9 0.00 0.00 0.00 36 1019.7
20260901030451 82 112 0.0 3.5 0.00 0.00 0.00 36 1019.7
20260901025506 82 127 0.0 5.2 0.00 0.00 0.00 35 1019.4
20260901025002 82 120 0.0 5.2 0.00 0.00 0.00 35 1019.7
20260901024707 82 128 0.9 5.2 0.00 0.00 0.00 34 1019.4
20260901023933 82 116 0.0 7.0 0.00 0.00 0.00 34 1019.4
20260901023423 83 144 0.0 7.0 0.00 0.00 0.00 33 1019.0
20260901022913 83 128 0.0 3.5 0.00 0.00 0.00 33 1018.7
20260901022406 83 108 1.7 3.5 0.00 0.00 0.00 33 1019.0
20260901021907 83 134 0.0 7.0 0.00 0.00 0.00 33 1018.7
20260901021406 83 123 0.0 7.0 0.00 0.00 0.00 32 1018.7
20260901020906 83 143 0.0 7.0 0.00 0.00 0.00 32 1018.7
20260901020404 84 129 3.5 9.6 0.00 0.00 0.00 31 1018.7
20260901015904 84 122 1.7 9.6 0.00 0.00 0.00 31 1018.7
20260901015358 84 124 1.7 6.1 0.00 0.00 0.00 31 1018.3
20260901014848 84 121 0.0 7.0 0.00 0.00 0.00 30 1018.3
20260901014328 85 120 0.9 7.0 0.00 0.00 0.00 30 1018.3
20260901013815 85 116 1.7 9.6 0.00 0.00 0.00 30 1018.3
20260901013315 85 125 0.9 9.6 0.00 0.00 0.00 30 1018.3
20260901012813 85 109 0.0 11.3 0.00 0.00 0.00 31 1018.3
20260901012259 85 137 0.0 11.3 0.00 0.00 0.00 31 1018.3
20260901011758 86 126 3.5 11.3 0.00 0.00 0.00 31 1018.3
20260901011248 86 108 0.0 11.3 0.00 0.00 0.00 31 1018.3
20260901010749 86 122 6.1 9.6 0.00 0.00 0.00 30 1018.3
20260901010245 86 125 0.0 7.8 0.00 0.00 0.00 29 1018.0
20260901005733 87 128 1.7 11.3 0.00 0.00 0.00 30 1018.3
20260901005439 87 136 0.0 12.2 0.00 0.00 0.00 30 1018.0
20260901004706 87 81 7.0 12.2 0.00 0.00 0.00 29 1018.3
20260901004206 87 125 5.2 12.2 0.00 0.00 0.00 29 1018.3
20260901003648 87 122 0.9 12.2 0.00 0.00 0.00 29 1018.0
20260901003135 88 125 0.0 13.0 0.00 0.00 0.00 30 1018.3
20260901002630 88 131 6.1 13.9 0.00 0.00 0.00 29 1018.3
20260901002126 88 101 7.0 13.9 0.00 0.00 0.00 29 1018.0
20260901001622 88 113 1.7 13.0 0.00 0.00 0.00 29 1018.3
20260901001339 88 146 4.3 12.2 0.00 0.00 0.00 29 1018.3
20260901000615 88 145 2.6 13.0 0.00 0.00 0.00 29 1018.3
20260901000058 89 116 10.4 13.0 0.00 0.00 0.00 29 1018.3
20260831235543 89 113 1.7 13.0 0.00 0.00 0.00 29 1018.3
20260831235034 89 79 7.0 13.0 0.00 0.00 0.00 28 1018.3
20260831234514 89 145 6.1 13.0 0.00 0.00 0.00 27 1018.3
20260831234012 89 138 2.6 13.9 0.00 0.00 0.00 28 1018.3
20260831233510 89 124 7.8 13.9 0.00 0.00 0.00 27 1018.3
20260831233223 89 135 7.0 13.9 0.00 0.00 0.00 27 1018.3
20260831232457 90 150 6.1 13.9 0.00 0.00 0.00 27 1018.7
20260831231947 90 148 3.5 13.0 0.00 0.00 0.00 27 1018.3
20260831231438 91 114 7.8 13.0 0.00 0.00 0.00 26 1018.3
20260831231417 91 111 3.5 12.2 0.00 0.00 0.00 26 1018.3
20260831230427 90 115 6.1 12.2 0.00 0.00 0.00 26 1018.3
20260831225918 91 170 7.0 13.0 0.00 0.00 0.00 26 1018.3
20260831225410 91 102 7.8 15.6 0.00 0.00 0.00 26 1018.3
20260831225132 91 132 8.7 15.6 0.00 0.00 0.00 26 1018.3
20260831224405 91 137 8.7 13.9 0.00 0.00 0.00 25 1018.0
20260831223904 91 146 2.6 13.9 0.00 0.00 0.00 25 1018.3
20260831223401 91 121 5.2 13.0 0.00 0.00 0.00 25 1018.3
20260831223104 91 125 2.6 13.0 0.00 0.00 0.00 25 1018.3
20260831222340 92 121 1.7 13.9 0.00 0.00 0.00 24 1018.3
20260831221818 92 100 8.7 13.0 0.00 0.00 0.00 24 1018.3
20260831221317 92 118 0.9 13.0 0.00 0.00 0.00 25 1018.3
20260831220815 92 71 5.2 11.3 0.00 0.00 0.00 25 1018.3
20260831220251 92 123 5.2 12.2 0.00 0.00 0.00 25 1018.3
20260831215744 93 111 7.8 12.2 0.00 0.00 0.00 24 1018.3
20260831215244 93 121 0.0 13.9 0.00 0.00 0.00 25 1018.7
20260831214739 92 147 1.7 13.9 0.00 0.00 0.00 25 1018.3
20260831214232 92 129 7.8 13.0 0.00 0.00 0.00 24 1018.7
20260831213732 93 92 0.0 13.0 0.00 0.00 0.00 25 1018.7
20260831213211 93 110 0.0 12.2 0.00 0.00 0.00 24 1018.7
20260831212701 92 81 4.3 12.2 0.00 0.00 0.00 23 1018.7
20260831212158 92 106 3.5 13.0 0.00 0.00 0.00 24 1019.0
20260831211912 93 110 5.2 13.0 0.00 0.00 0.00 24 1019.0
20260831211147 93 112 0.0 13.9 0.00 0.00 0.00 26 1019.0
20260831210645 94 114 1.7 13.9 0.00 0.00 0.00 24 1019.0
20260831210402 93 115 0.0 13.0 0.00 0.00 0.00 24 1019.0
20260831205634 93 148 4.3 11.3 0.00 0.00 0.00 24 1019.0
20260831205131 92 153 3.5 11.3 0.00 0.00 0.00 25 1019.4
20260831204615 92 117 3.5 11.3 0.00 0.00 0.00 25 1019.0
20260831204113 92 110 0.0 11.3 0.00 0.00 0.00 24 1019.4
20260831203840 92 100 0.9 7.8 0.00 0.00 0.00 26 1019.4
20260831203112 92 129 0.0 11.3 0.00 0.00 0.00 27 1019.4
20260831202608 92 95 0.9 11.3 0.00 0.00 0.00 27 1019.4
20260831202103 92 104 1.7 11.3 0.00 0.00 0.00 26 1019.7
20260831201815 93 159 6.1 8.7 0.00 0.00 0.00 25 1020.0
20260831201054 93 101 0.0 13.0 0.00 0.00 0.00 26 1019.7
20260831200538 91 147 0.0 13.0 0.00 0.00 0.00 27 1020.0
20260831200034 92 124 4.3 13.0 0.00 0.00 0.00 26 1020.0
20260831195518 92 115 0.0 6.1 0.00 0.00 0.00 28 1020.0
20260831195016 92 153 0.0 8.7 0.00 0.00 0.00 27 1020.4
20260831194514 92 155 2.6 12.2 0.00 0.00 0.00 27 1020.0
20260831194015 92 111 5.2 12.2 0.00 0.00 0.00 27 1020.0
20260831193513 92 107 3.5 7.0 0.00 0.00 0.00 28 1020.0
20260831193014 91 103 0.0 12.2 0.00 0.00 0.00 28 1020.4
20260831192456 92 91 0.0 12.2 0.00 0.00 0.00 28 1020.0
20260831191935 91 128 0.9 12.2 0.00 0.00 0.00 29 1020.0
20260831191417 92 162 6.1 12.2 0.00 0.00 0.00 29 1020.4
20260831190905 92 92 0.0 8.7 0.00 0.00 0.00 28 1020.4
20260831190359 91 122 0.9 8.7 0.00 0.00 0.00 30 1020.4
20260831185844 91 121 3.5 7.8 0.00 0.00 0.00 30 1020.4
20260831185334 91 102 2.6 7.0 0.00 0.00 0.00 30 1020.7
20260831184833 91 70 0.0 11.3 0.00 0.00 0.00 32 1020.7
20260831184813 91 113 7.8 12.2 0.00 0.00 0.00 32 1020.4
20260831183816 90 150 5.2 12.2 0.00 0.00 0.00 31 1020.7
20260831183307 91 141 0.0 11.3 0.00 0.00 0.00 32 1020.4
20260831182802 90 134 0.0 11.3 0.00 0.00 0.00 32 1020.7
20260831182305 90 131 0.9 11.3 0.00 0.00 0.00 33 1021.1
20260831181753 90 118 0.0 12.2 0.00 0.00 0.00 33 1020.7
20260831181250 90 118 4.3 12.2 0.00 0.00 0.00 33 1021.4
20260831180750 90 139 0.0 14.8 0.00 0.00 0.00 34 1021.1
20260831180242 90 140 2.6 7.8 0.00 0.00 0.00 33 1021.1
20260831175735 89 129 0.0 9.6 0.00 0.00 0.00 34 1021.1
20260831175219 89 147 0.0 9.6 0.00 0.00 0.00 35 1021.1
20260831174710 90 131 0.0 8.7 0.00 0.00 0.00 35 1021.1
20260831174206 89 144 3.5 8.7 0.00 0.00 0.00 35 1021.1
20260831173704 89 163 0.9 7.8 0.00 0.00 0.00 35 1021.4
20260831173146 89 112 2.6 9.6 0.00 0.00 0.00 35 1021.4
20260831172640 89 110 0.0 9.6 0.00 0.00 0.00 34 1021.4
20260831172130 89 143 0.0 9.6 0.00 0.00 0.00 36 1021.7
20260831171837 88 181 0.0 11.3 0.00 0.00 0.00 36 1021.7
20260831171113 87 136 0.9 11.3 0.00 0.00 0.00 36 1021.7
20260831170605 87 150 1.7 9.6 0.00 0.00 0.00 36 1021.7
20260831170537 87 151 2.6 8.7 0.00 0.00 0.00 37 1021.7
20260831165552 86 126 4.3 8.7 0.00 0.00 0.00 37 1021.4
20260831165040 86 120 1.7 8.7 0.00 0.00 0.00 39 1021.7
20260831164534 87 142 0.0 8.7 0.00 0.00 0.00 38 1021.7
20260831164247 85 116 0.0 7.0 0.00 0.00 0.00 41 1021.7
20260831163529 87 146 0.0 6.1 0.00 0.00 0.00 40 1021.4
20260831163030 85 105 0.9 6.1 0.00 0.00 0.00 41 1021.7
20260831162754 85 170 0.9 7.8 0.00 0.00 0.00 41 1021.7
20260831162027 85 172 0.0 7.8 0.00 0.00 0.00 42 1021.7